Location: Audinghen
(50.8518°N, 1.6129°E)
Time: 05:09:15
(UTC+00:00)

NOSS 3-1 (C) - Pass Details

Date: 07 August 2020
Orbit: 744 x 1464 km, 63.4° (Epoch: 17 September)

Event Time Altitude Azimuth Distance (km) Brightness Sun altitude
Exits shadow 02:17:31 16° 171° (S) 2,034 4.8 -16.3°
Maximum altitude 02:21:13 33° 116° (ESE) 1,440 4.5 -16.0°
Drops below altitude 10° 02:26:40 10° 55° (NE) 2,725 7.0 -15.5°
Sets 02:29:42 0° 47° (NE) 3,799 8.4 -15.2°
